Weather History for Ukiah, CA

Change the Weather History Date:

Saturday, November 10, 2012

  Actual Average Record
Temperature  
Mean Temperature 44 °F 52 °F  
Max Temperature 56 °F 65 °F 86 °F (1955)
Min Temperature 32 °F 40 °F 26 °F (1936)
Degree Days  
Heating Degree Days 21 12  
Month to date heating degree days 86 111  
Since 1 July heating degree days 199 311  
Cooling Degree Days 0 0  
Month to date cooling degree days 1 0  
Year to date cooling degree days 983 835  
Moisture  
Dew Point 34 °F    
Average Humidity 72    
Maximum Humidity 100    
Minimum Humidity 43    
Precipitation  
Precipitation 0.00 in 0.12 in 3.07 in (1983)
Month to date precipitation 0.38 1.23  
Year to date precipitation 21.38 27.36  
Since 1 July precipitation 2.46 3.98  
Snow  
Snow 0.00 in - - ()
Month to date snowfall 0.0  
Since 1 July snowfall 0.0  
Since 1 September snowfall 0.0  
Snow Depth 0.00 in    
Sea Level Pressure  
Sea Level Pressure 30.10 in    
Wind  
Wind Speed 2 mph (NW)    
Max Wind Speed 13 mph    
Max Gust Speed 17 mph    
Visibility 8 miles    
Events Fog    
T = Trace of Precipitation, MM = Missing Value Source: NWS Daily Summary

Daily Weather History Graph

Daily Weather History Graph

Search for Another Location

Airport:

Trip Planner

Search our weather history database for the weather conditions in past years. The results will help you decide how hot, cold, wet, or windy it might be!

Date:

Astronomy

Nov. 10, 2012 Rise Set
Actual Time 6:51 AM PST 5:02 PM PST
Civil Twilight 6:22 AM PST 5:30 PM PST
Nautical Twilight 5:50 AM PST 6:02 PM PST
Astronomical Twilight 5:19 AM PST 6:33 PM PST
Moon 3:03 AM PST (11/10) 2:51 PM PST (11/10)
Length of Visible Light 11h 07m
Length of Day
10h 11m
Waning Crescent, 13% of the Moon is Illuminated
Nov 10
Waning Crescent
Nov 13
New
Nov 20
First Quarter
Nov 28
Full
Dec 6
Last Quarter

Hourly Weather History & Observations

Time (PST) Temp. Dew Point Humidity Pressure Visibility Wind Dir Wind Speed Gust Speed Precip Events Conditions
12:56 AM 37.0 °F 35.1 °F 93% 30.00 in 9.0 mi Calm Calm - N/A   Clear
1:56 AM 35.1 °F 33.1 °F 92% 30.01 in 10.0 mi Calm Calm - N/A   Clear
2:06 AM 33.8 °F 33.8 °F 100% 30.01 in 2.5 mi Calm Calm - N/A   Scattered Clouds
2:09 AM 33.8 °F 32.0 °F 93% 30.01 in 1.0 mi Calm Calm - N/A   Mist
2:17 AM 33.8 °F 33.8 °F 100% 30.01 in 0.5 mi Calm Calm - N/A Fog Fog
2:31 AM 33.8 °F 32.0 °F 93% 30.01 in 2.0 mi Calm Calm - N/A   Mostly Cloudy
2:33 AM 33.8 °F 33.8 °F 100% 30.01 in 4.0 mi Calm Calm - N/A   Mostly Cloudy
2:56 AM 33.1 °F 32.0 °F 96% 30.01 in 8.0 mi Calm Calm - N/A   Partly Cloudy
3:25 AM 33.8 °F 33.8 °F 100% 30.02 in 10.0 mi Calm Calm - N/A   Partly Cloudy
4:42 AM 33.8 °F 33.8 °F 100% 30.03 in 10.0 mi Calm Calm - N/A   Mostly Cloudy
4:56 AM 34.0 °F 32.0 °F 92% 30.04 in 10.0 mi Calm Calm - N/A   Mostly Cloudy
5:12 AM 33.8 °F 30.2 °F 87% 30.04 in 8.0 mi Calm Calm - N/A   Scattered Clouds
5:22 AM 33.8 °F 32.0 °F 93% 30.04 in 8.0 mi Calm Calm - N/A   Mostly Cloudy
5:34 AM 33.8 °F 30.2 °F 87% 30.04 in 10.0 mi Calm Calm - N/A   Scattered Clouds
5:56 AM 33.1 °F 30.9 °F 92% 30.05 in 10.0 mi Calm Calm - N/A   Clear
6:56 AM 33.1 °F 32.0 °F 96% 30.07 in 10.0 mi Calm Calm - N/A   Clear
7:16 AM 33.8 °F 32.0 °F 93% 30.07 in 10.0 mi Calm Calm - N/A   Partly Cloudy
7:56 AM 34.0 °F 33.1 °F 96% 30.10 in 8.0 mi Calm Calm - N/A   Scattered Clouds
8:48 AM 35.6 °F 35.6 °F 100% 30.11 in 1.5 mi Calm Calm - N/A   Mostly Cloudy
8:56 AM 37.0 °F 35.1 °F 93% 30.11 in 2.5 mi Calm Calm - N/A   Mostly Cloudy
9:03 AM 37.4 °F 35.6 °F 93% 30.11 in 10.0 mi Calm Calm - N/A   Scattered Clouds
9:56 AM 42.1 °F 37.9 °F 85% 30.12 in 10.0 mi Calm Calm - N/A   Clear
10:56 AM 46.9 °F 37.9 °F 71% 30.13 in 10.0 mi Calm Calm - N/A   Clear
11:56 AM 52.0 °F 37.9 °F 59% 30.12 in 10.0 mi North 4.6 mph - N/A   Clear
12:56 PM 55.0 °F 35.1 °F 47% 30.11 in 10.0 mi North 6.9 mph - N/A   Scattered Clouds
1:56 PM 55.0 °F 34.0 °F 45% 30.11 in 10.0 mi NNW 9.2 mph - N/A   Mostly Cloudy
2:56 PM 54.0 °F 35.1 °F 49% 30.12 in 10.0 mi WNW 5.8 mph - N/A   Mostly Cloudy
3:56 PM 53.1 °F 36.0 °F 52% 30.12 in 10.0 mi West 8.1 mph - N/A   Clear
4:56 PM 50.0 °F 36.0 °F 59% 30.14 in 10.0 mi West 5.8 mph - N/A   Scattered Clouds
5:56 PM 48.9 °F 36.0 °F 61% 30.16 in 10.0 mi Calm Calm - N/A   Clear
6:56 PM 45.0 °F 37.0 °F 74% 30.20 in 10.0 mi Calm Calm - N/A   Clear
7:56 PM 43.0 °F 37.0 °F 80% 30.21 in 10.0 mi Calm Calm - N/A   Clear
8:56 PM 41.0 °F 36.0 °F 82% 30.23 in 10.0 mi Calm Calm - N/A   Clear
9:56 PM 39.9 °F 36.0 °F 86% 30.25 in 10.0 mi Calm Calm - N/A   Clear
10:56 PM 39.0 °F 36.0 °F 89% 30.26 in 10.0 mi Calm Calm - N/A   Clear
11:56 PM 36.0 °F 34.0 °F 93% 30.27 in 10.0 mi Calm Calm - N/A   Clear